Location: Brachbach
(49.1847°N, 9.7240°E)
Time: 21:42:34
(UTC+00:00)

Cosmos 2219 Rocket - Pass Details

Date: 17 August 2024
Orbit: 826 x 846 km, 71.0° (Epoch: 09 September)

Event Time Altitude Azimuth Distance (km) Brightness Sun altitude
Exits shadow 21:59:15 17° 81° (E) 1,995 4.0 -25.0°
Drops below altitude 10° 22:01:43 10° 57° (ENE) 2,478 4.7 -25.1°
Sets 22:04:51 0° 40° (NE) 3,419 5.7 -25.3°
